Location: Caltech
(34.1382°N, 118.1253°W)
Time: 21:59:52
(UTC-08:00)

Iridium 65 - Visible Passes

Search period start: 26 February 2015 00:00
Search period end: 08 March 2015 00:00
Orbit: 776 x 779 km, 86.4° (Epoch: 26 February)

Date Brightness Start Highest point End Pass type
(mag) Time Alt. Az. Time Alt. Az. Time Alt. Az.
26 Feb 7.6 03:37:35 21° NNE 03:37:35 21° NNE 03:39:18 10° NNE visible
26 Feb 7.5 05:18:04 11° NW 05:18:04 11° NW 05:18:21 10° NW visible
27 Feb 8.3 03:04:33 13° NE 03:04:33 13° NE 03:05:09 10° NNE visible
27 Feb 7.4 04:45:03 15° NNW 04:45:03 15° NNW 04:46:03 10° NNW visible
28 Feb 7.5 04:11:57 16° N 04:11:57 16° N 04:13:01 10° N visible
01 Mar 7.9 03:38:49 14° N 03:38:49 14° N 03:39:33 10° N visible
02 Mar 8.3 03:05:37 10° NNE 03:05:37 10° NNE 03:05:42 10° NNE visible
04 Mar 8.1 03:39:38 10° N 03:39:38 10° N 03:39:39 10° N visible
